Total_Precipitation_Accumulation
2.57 2.73 2.52 2.27 2.25 2.22 2.59 3.04 3.38 3.14 2.71 2.40 2.17 2.15 2.28 2.42 2.66 2.44 2.48 2.49 2.24 2.00 1.78 1.72 1.68 1.63 1.63 1.72 1.86 1.92 1.95 2.03 2.22 2.48 2.76 3.03 3.25 3.52
2.74 2.81 2.65 2.39 2.47 2.32 2.41 2.77 3.07 3.27 2.94 2.21 2.16 2.08 2.22 2.16 2.56 2.36 2.50 2.50 2.16 1.96 1.77 1.67 1.59 1.53 1.51 1.54 1.59 1.68 1.74 1.74 1.77 1.90 2.05 2.19 2.30 2.46
2.73 2.70 2.66 2.69 2.70 2.53 2.62 2.74 2.81 3.14 3.13 2.48 2.30 2.38 2.49 2.48 2.55 2.44 2.32 2.31 2.12 2.07 1.80 1.64 1.54 1.47 1.45 1.43 1.44 1.43 1.48 1.52 1.53 1.55 1.63 1.71 1.76 1.80
3.06 3.19 2.94 2.95 2.95 2.77 2.76 2.75 2.82 3.06 3.10 2.87 2.66 2.61 2.66 2.61 2.62 2.45 2.08 1.98 2.06 2.25 2.03 1.77 1.60 1.49 1.42 1.37 1.34 1.31 1.32 1.37 1.41 1.38 1.40 1.46 1.54 1.56
2.83 3.11 3.12 3.31 3.05 3.05 2.95 2.82 2.83 2.84 3.02 2.85 2.64 2.81 2.82 2.77 2.71 2.32 2.13 2.21 2.03 2.30 2.24 1.89 1.68 1.58 1.45 1.33 1.24 1.20 1.18 1.22 1.29 1.35 1.34 1.32 1.33 1.36
2.55 2.68 2.81 3.11 3.11 3.18 3.01 3.02 3.14 3.19 3.29 3.13 2.92 2.98 3.10 3.12 3.01 2.62 2.46 2.36 2.22 2.04 2.18 1.96 1.82 1.72 1.58 1.44 1.34 1.24 1.22 1.22 1.24 1.26 1.29 1.31 1.32 1.29
2.53 2.50 2.49 2.74 2.83 2.90 2.65 2.86 3.19 3.24 3.29 3.20 3.05 3.05 3.04 3.21 2.94 2.77 2.62 2.58 2.48 2.21 2.13 1.88 1.78 1.64 1.60 1.62 1.54 1.43 1.33 1.30 1.31 1.30 1.27 1.26 1.29 1.35
2.82 2.74 2.60 2.54 2.54 2.58 2.61 2.70 2.86 2.88 2.95 3.05 2.94 2.89 2.91 3.06 3.24 3.12 2.94 2.78 2.50 2.20 2.26 1.99 1.86 1.77 1.61 1.48 1.62 1.58 1.44 1.36 1.32 1.32 1.33 1.33 1.35 1.36
2.79 2.75 2.44 2.29 2.53 2.43 2.60 2.62 2.44 2.37 2.38 2.54 2.53 2.52 2.94 3.26 3.58 3.25 3.08 2.92 2.65 2.47 2.42 2.06 1.92 1.89 1.72 1.66 1.79 1.58 1.40 1.30 1.27 1.28 1.35 1.38 1.39 1.38
2.45 2.55 2.49 2.36 2.39 2.52 2.44 2.18 1.95 1.95 2.02 1.94 1.95 2.19 2.64 3.22 3.53 3.49 3.48 3.23 2.88 2.51 2.37 2.06 1.82 1.73 1.63 1.65 1.86 1.75 1.56 1.38 1.29 1.26 1.25 1.29 1.33 1.37
2.19 2.20 2.21 2.06 2.22 2.37 2.26 2.01 1.82 1.74 1.80 1.81 1.79 2.01 2.30 2.66 3.11 3.33 3.21 3.03 2.60 2.19 2.08 1.98 1.83 1.83 1.76 1.67 1.68 1.84 1.68 1.52 1.44 1.36 1.32 1.30 1.31 1.36
2.28 2.23 2.29 2.06 2.00 1.96 1.85 1.86 1.66 1.57 1.72 1.70 1.64 1.69 1.83 2.16 2.67 2.75 2.77 2.86 2.55 2.20 1.92 1.96 1.86 2.05 1.99 1.71 1.58 1.58 1.58 1.62 1.61 1.52 1.43 1.42 1.43 1.27
2.02 1.90 1.94 1.96 1.75 1.60 1.57 1.53 1.47 1.58 1.68 1.64 1.55 1.55 1.69 1.88 2.07 2.33 2.56 2.60 2.43 2.06 1.87 2.06 1.95 2.01 2.05 1.76 1.58 1.54 1.51 1.47 1.50 1.56 1.61 1.65 1.63 1.45
2.01 1.99 2.02 2.05 1.81 1.67 1.49 1.35 1.42 1.45 1.48 1.58 1.50 1.42 1.46 1.58 1.85 2.15 2.46 2.58 2.49 2.33 2.31 2.35 2.22 2.13 2.12 1.94 1.69 1.54 1.52 1.52 1.53 1.55 1.61 1.88 1.85 1.80
1.96 2.28 2.32 2.24 2.01 1.73 1.64 1.66 1.60 1.46 1.46 1.48 1.41 1.35 1.41 1.58 1.87 2.21 2.48 2.70 2.67 2.48 2.39 2.34 2.33 2.38 2.43 2.16 1.88 1.75 1.73 1.67 1.59 1.60 1.63 1.69 1.74 1.82
1.95 2.23 2.41 2.39 2.25 2.01 1.89 1.81 1.61 1.52 1.59 1.59 1.61 1.65 1.77 1.91 2.05 2.19 2.42 2.59 2.67 2.51 2.41 2.36 2.38 2.50 2.45 2.28 2.16 1.98 1.85 1.79 1.77 1.81 1.84 1.81 1.80 1.78
2.16 2.32 2.45 2.55 2.57 2.49 2.37 2.29 2.17 2.02 1.84 1.79 1.86 1.87 1.93 2.03 2.09 2.23 2.48 2.57 2.51 2.27 2.27 2.35 2.45 2.53 2.55 2.51 2.30 1.97 1.87 1.78 1.76 1.90 1.96 1.88 1.77 1.71
2.12 2.17 2.41 2.61 2.70 2.78 2.81 2.69 2.48 2.29 2.12 2.09 2.05 2.03 2.06 2.08 2.14 2.29 2.49 2.58 2.44 2.25 2.18 2.26 2.50 2.66 2.66 2.50 2.24 2.02 1.91 1.80 1.73 1.80 1.84 1.80 1.65 1.50
1.92 2.02 2.15 2.27 2.47 2.69 2.75 2.71 2.51 2.40 2.44 2.41 2.32 2.29 2.31 2.32 2.32 2.42 2.59 2.68 2.62 2.46 2.37 2.41 2.54 2.60 2.47 2.10 1.85 1.79 1.80 1.75 1.79 1.78 1.73 1.69 1.59 1.52
1.61 1.80 2.00 2.16 2.32 2.57 2.72 2.74 2.68 2.62 2.64 2.70 2.67 2.60 2.57 2.48 2.38 2.32 2.46 2.58 2.61 2.58 2.52 2.43 2.37 2.40 2.38 2.19 1.99 1.79 1.72 1.79 1.80 1.79 1.75 1.73 1.70 1.76
1.53 1.57 1.66 1.87 2.09 2.33 2.59 2.76 2.76 2.66 2.61 2.68 2.68 2.63 2.61 2.58 2.42 2.30 2.35 2.56 2.61 2.54 2.37 2.17 2.11 2.36 2.56 2.70 2.43 1.95 1.75 1.79 1.88 1.90 1.91 2.02 1.94 1.83
1.59 1.59 1.69 1.87 2.06 2.29 2.50 2.61 2.65 2.66 2.61 2.58 2.52 2.46 2.46 2.45 2.31 2.25 2.26 2.34 2.37 2.37 2.33 2.34 2.53 2.71 2.73 2.70 2.33 1.99 1.88 1.91 2.02 2.13 2.05 1.95 1.88 1.76
1.71 1.70 1.73 1.82 1.99 2.20 2.36 2.49 2.53 2.57 2.60 2.61 2.57 2.47 2.44 2.44 2.38 2.33 2.32 2.34 2.36 2.36 2.50 2.59 2.62 2.71 2.64 2.57 2.48 2.33 2.18 2.12 2.14 2.08 1.86 1.75 1.69 1.62